Terminal Aerodrome Forecast
Issued by NWS

Home | Current Version | Previous Version | Text Only | Print | Product List | Glossary On
Versions: 1 2 3 4 5 6 7 8 9 10 11 12 13 14 15 16 17 18 19 20 21 22 23 24 25 26 27 28 29 30
000
FTUS41 KBOX 022325
TAFACK
TAF
KACK 022325Z 0300/0324 30012G22KT P6SM FEW250
     FM030800 32011G18KT P6SM FEW250
     FM031300 33010KT P6SM FEW250
     FM031700 29006KT P6SM SCT200
     FM032000 19005KT P6SM BKN150
     FM032300 18010KT P6SM BKN080=

USA.gov is the U.S. government's official web portal to all federal, state and local government web resources and services.